{"data":{"norad_id":43479,"epoch":"2026-05-25T03:33:06.298848Z","epoch_age_seconds":72909,"freshness":"FRESH","line1":"1 43479U 18047D   26145.14798957 -.00000092  00000+0 -39941-4 0  9997","line2":"2 43479  86.3947  97.9648 0002280  87.4577 272.6880 14.34217212419182","mean_motion":14.34217212,"eccentricity":0.000228,"inclination_deg":86.3947,"raan_deg":97.9648,"arg_perigee_deg":87.4577,"mean_anomaly_deg":272.688,"bstar":-3.9941e-5,"rev_number":41918,"period_min":100.40320168742,"perigee_km":776.03742010983,"apogee_km":779.30046762023,"semimajor_km":7155.805943865,"source":"CELESTRAK","updated_at":"2026-05-25T13:38:14.809956Z"}}